Location: Kennington
(51.1500°N, 0.8833°E)
Time: 11:37:29
(UTC+00:00)

Cosmos 1782 - Pass Details

Date: 21 September 2020
Orbit: 535 x 553 km, 82.5° (Epoch: 30 October)

Event Time Altitude Azimuth Distance (km) Brightness Sun altitude
Exits shadow 02:59:35 61° 102° (ESE) 633 3.2 -24.6°
Maximum altitude 02:59:39 61° 96° (E) 633 3.2 -24.6°
Drops below altitude 10° 03:03:40 10° 17° (NNE) 1,846 6.2 -24.1°
Sets 03:05:51 0° 14° (NNE) 2,745 7.1 -23.8°
